[[[{"header":{"parameterUnit":"kt","parameterCategory":2,"dx":1,"dy":1,"la1":30.253999710083008,"la2":30.299108505249023,"lo1":-89.0895004272461,"lo2":-89.04439544677734,"nx":28,"ny":28,"refTime":"2022-09-18T21:00:00:Z","depth":0,"parameterNumber":1,"parameterNumberName":"U-component_of_WINDS"},"data":[2.5434,2.5492,2.5541,2.5628,2.5687,2.5754,2.5794,2.585,2.5906,2.599,2.6047,2.61,2.6174,2.6252,2.6314,2.6336,2.6358,2.6343,2.6371,2.6396,2.6402,2.6408,2.6399,2.6348,2.6347,2.6338,2.6338,2.6337,2.5449,2.5509,2.557,2.5662,2.5714,2.5759,2.5835,2.5874,2.5932,2.6002,2.6061,2.6138,2.6204,2.6284,2.6355,2.638,2.6404,2.6396,2.6394,2.6404,2.6433,2.6423,2.6376,2.6376,2.6376,2.6376,2.6376,2.6376,2.549,2.5523,2.5608,2.5674,2.5734,2.5794,2.5833,2.5899,2.5957,2.604,2.6085,2.6151,2.6228,2.6337,2.6384,2.6435,2.6452,2.6457,2.6459,2.6458,2.6452,2.6459,2.6449,2.645,2.645,2.645,2.645,0,2.5535,2.5574,2.5636,2.5712,2.5763,2.5827,2.5892,2.5917,2.6015,2.6058,2.6125,2.6172,2.6262,2.6329,2.6406,2.6454,2.6501,2.6512,2.6515,2.6493,2.6465,2.648,2.6524,2.6511,2.6511,2.6512,2.6512,2.6512,2.5578,2.561,2.5723,2.5759,2.5808,2.5865,2.5909,2.5993,2.6035,2.6126,2.6149,2.6218,2.6278,2.6374,2.6447,2.6514,2.6537,2.6527,2.6547,2.6526,2.6536,2.6532,2.6536,2.652,2.6519,2.6518,2.6518,0,2.5597,2.5678,2.5744,2.5852,2.588,2.5908,2.5999,2.6034,2.6093,2.6149,2.6166,2.6259,2.6322,2.6398,2.6483,2.6521,2.6565,2.6586,2.654,2.6547,2.6545,2.6544,2.6527,2.6529,2.6584,2.6583,2.6583,0,2.5665,2.5703,2.5822,2.5855,2.59,2.5984,2.6026,2.6082,2.6151,2.6195,2.6263,2.6302,2.6394,2.6444,2.6499,2.6548,2.6565,2.6596,2.6609,2.6589,2.6585,2.661,2.6611,2.6641,2.6641,2.6641,2.6641,0,2.5685,2.5794,2.5849,2.5887,2.6005,2.6028,2.6077,2.6156,2.6197,2.6262,2.629,2.6359,2.6396,2.6448,2.6518,2.6529,2.6581,2.661,2.6612,2.661,2.6618,2.6616,2.6585,2.6641,2.6641,2.6641,2.6641,0,2.5751,2.582,2.5888,2.5988,2.6013,2.6048,2.6124,2.6172,2.6249,2.6287,2.6339,2.6392,2.6443,2.6467,2.6537,2.6532,2.6564,2.6599,2.66,2.6608,2.6631,2.6602,2.6565,2.6564,2.6617,2.6616,2.6616,0,2.5752,2.5843,2.5917,2.5979,2.6031,2.6106,2.6146,2.6213,2.6268,2.6318,2.6378,2.6433,2.6467,2.6495,2.652,2.6582,2.659,2.6584,2.6652,2.6653,2.6629,2.6596,2.6571,2.6565,2.6615,2.6615,2.6615,0,2.5762,2.5908,2.5913,2.596,2.6064,2.6107,2.6154,2.623,2.626,2.6327,2.6367,2.6448,2.6477,2.6521,2.6572,2.6594,2.6587,2.6621,2.6624,2.6611,2.6621,2.6597,2.6596,2.6616,2.6616,2.6616,2.6614,0,2.5842,2.5898,2.5919,2.6018,2.6065,2.6108,2.6192,2.6229,2.6275,2.6331,2.6391,2.6464,2.6538,2.6557,2.66,2.6627,2.6634,2.6663,2.669,2.6669,2.667,2.667,2.6682,2.6683,2.6685,2.6685,0,0,2.5821,2.5904,2.5983,2.6034,2.6077,2.6154,2.6193,2.6244,2.6344,2.6372,2.6388,2.6512,2.6569,2.6633,2.6633,2.6663,2.6674,2.6679,2.6679,2.6677,2.6677,2.6676,2.6676,2.6687,2.6688,2.6688,2.6688,0,2.5868,2.5931,2.597,2.6028,2.6116,2.6175,2.6184,2.6283,2.6321,2.6382,2.6441,2.6487,2.6583,2.6636,2.6676,2.6674,2.6714,2.669,2.6662,2.6687,2.6684,2.6682,2.6681,2.6679,2.6691,2.6691,2.6691,0,2.5892,2.5968,2.5996,2.6102,2.6159,2.6211,2.6262,2.6314,2.6352,2.6429,2.6488,2.6539,2.6617,2.6667,2.6692,2.6707,2.6746,2.6748,2.6744,2.6747,2.6775,2.6772,2.6769,2.6806,2.6806,2.6806,0,0,2.5921,2.5974,2.608,2.6118,2.615,2.6239,2.6274,2.6324,2.6395,2.6422,2.6489,2.6554,2.6611,2.6646,2.6704,2.6747,2.6768,2.6759,2.6754,2.6749,2.675,2.6776,2.6773,2.6806,2.6806,2.6806,0,0,2.5933,2.6059,2.6094,2.6148,2.6215,2.632,2.6339,2.6382,2.6443,2.6447,2.653,2.6551,2.6599,2.6646,2.664,2.6714,2.6739,2.6742,2.6682,2.6676,2.6671,2.6658,2.6699,0,0,0,0,0,2.6025,2.6044,2.6074,2.6096,2.6228,2.6304,2.6321,2.6392,2.6409,2.6423,2.6485,2.6527,2.666,2.6657,2.6676,2.6681,2.681,2.6809,2.6809,2.6741,2.6734,2.6728,0,0,0,0,0,0,2.6034,2.6061,2.6074,2.6179,2.6209,2.6304,2.6349,2.6369,2.641,2.6417,2.6514,2.653,2.659,2.6652,2.6668,2.6671,2.6694,2.681,2.6809,2.6809,2.6739,2.6733,2.6728,0,0,0,0,0,2.6042,2.6063,2.6258,2.6179,2.6205,2.6304,2.6349,2.6366,2.6398,2.6495,2.6513,2.6448,2.6588,2.6606,2.6662,2.6662,2.6684,2.669,2.6809,2.6809,2.6809,2.6736,0,0,0,0,0,0,2.6048,2.6078,2.6265,2.6275,2.6177,2.63,2.6322,2.6363,2.6475,2.6493,2.6433,2.6438,2.6587,2.6601,2.6615,2.6655,2.6675,2.6681,2.6685,2.6809,2.6809,2.6808,0,0,0,0,0,0,2.6067,2.6087,2.627,2.6264,2.6275,2.6296,2.6316,2.6373,2.6475,2.6407,2.6415,2.6434,2.6565,2.6598,2.6608,2.6695,2.6669,2.6674,2.6678,2.6681,2.6809,2.6809,0,0,0,0,0,0,2.6077,2.6093,2.6262,2.627,2.6279,2.6403,2.6348,2.6479,2.6473,2.6401,2.6475,2.6475,2.6561,2.6573,2.6604,2.6685,2.6693,2.6669,2.6673,2.6675,2.6677,0,0,0,0,0,0,0,2.6084,2.5956,2.6202,2.6275,2.6283,2.6373,2.6376,2.6379,2.6474,2.6474,2.6475,2.6475,2.6638,2.6644,2.665,2.6678,0,0,2.6669,2.6671,0,0,0,0,0,0,0,0,2.5951,2.5955,2.6202,2.6205,2.6207,2.6373,2.6376,2.6378,2.6474,2.6474,2.6474,2.6475,2.6639,2.6644,2.6649,0,0,0,0,0,0,0,0,0,0,0,0,0,0,0,2.6203,2.6204,0,2.6374,2.6376,2.6378,2.6474,2.6474,2.6474,2.6475,2.6641,2.6645,2.6649,0,0,0,0,0,0,0,0,0,0,0,0,0,0,0,0,0,0,0,0,0,0,0,0,0,0,0,0,0,0,0,0,0,0,0,0,0,0,0,0,0,0,0,0,0,0,0,0,0,0,0,0,0,0,0,0,0,0,0,0,0,0,0,0,0,0,0,0,0]}],[{"header":{"parameterUnit":"kt","parameterCategory":2,"dx":1,"dy":1,"la1":30.253999710083008,"la2":30.299108505249023,"lo1":-89.0895004272461,"lo2":-89.04439544677734,"nx":28,"ny":28,"refTime":"2022-09-18T21:00:00:Z","depth":0,"parameterNumber":2,"parameterNumberName":"V-component_of_WINDS"},"data":[-2.6836,-2.6886,-2.6895,-2.6956,-2.6975,-2.7019,-2.7038,-2.7064,-2.7087,-2.7143,-2.7177,-2.7192,-2.7221,-2.7265,-2.7304,-2.7311,-2.7327,-2.7338,-2.7344,-2.7282,-2.7274,-2.7267,-2.7254,-2.7342,-2.7342,-2.7406,-2.7407,-2.7407,-2.6793,-2.6811,-2.6846,-2.6885,-2.6916,-2.691,-2.6942,-2.6968,-2.7008,-2.7037,-2.7071,-2.7122,-2.7163,-2.7188,-2.7231,-2.7257,-2.7257,-2.7268,-2.7265,-2.727,-2.7205,-2.7191,-2.7267,-2.7267,-2.7267,-2.7267,-2.7267,-2.7267,-2.6716,-2.6745,-2.6773,-2.6811,-2.6833,-2.686,-2.6891,-2.6908,-2.6943,-2.6986,-2.699,-2.7037,-2.7069,-2.7124,-2.7146,-2.7184,-2.7174,-2.7189,-2.7193,-2.7196,-2.7198,-2.7105,-2.7192,-2.7192,-2.7191,-2.7191,-2.7191,0,-2.6661,-2.6666,-2.6699,-2.6736,-2.6764,-2.6793,-2.6822,-2.6841,-2.6855,-2.6884,-2.6927,-2.6953,-2.7007,-2.7049,-2.7091,-2.711,-2.7108,-2.7109,-2.7119,-2.7117,-2.711,-2.7114,-2.7007,-2.7106,-2.7105,-2.7105,-2.7104,-2.7104,-2.6584,-2.6617,-2.665,-2.6672,-2.6689,-2.6726,-2.675,-2.6759,-2.6784,-2.6822,-2.6849,-2.6891,-2.6925,-2.6994,-2.7015,-2.7056,-2.7055,-2.7092,-2.7061,-2.7058,-2.7055,-2.7053,-2.7056,-2.7097,-2.7098,-2.7099,-2.7099,0,-2.6539,-2.6552,-2.6605,-2.6635,-2.6644,-2.6679,-2.6705,-2.6735,-2.6748,-2.6793,-2.6804,-2.6824,-2.6867,-2.6882,-2.6934,-2.6941,-2.7003,-2.7001,-2.6992,-2.6992,-2.7026,-2.7023,-2.7136,-2.7151,-2.7061,-2.7062,-2.7063,0,-2.6477,-2.652,-2.6536,-2.6567,-2.6616,-2.6623,-2.6672,-2.6688,-2.6713,-2.6748,-2.6747,-2.678,-2.6793,-2.683,-2.6839,-2.6892,-2.6902,-2.691,-2.6912,-2.691,-2.6909,-2.6923,-2.6919,-2.6916,-2.6915,-2.6915,-2.6914,0,-2.6405,-2.6464,-2.6514,-2.6529,-2.6565,-2.6589,-2.6605,-2.6633,-2.6656,-2.669,-2.6705,-2.6744,-2.6765,-2.6796,-2.6807,-2.6786,-2.6872,-2.6845,-2.6881,-2.688,-2.6898,-2.6896,-2.6993,-2.6913,-2.6913,-2.6913,-2.6913,0,-2.6356,-2.6387,-2.6457,-2.6486,-2.6501,-2.6535,-2.6571,-2.6603,-2.6633,-2.664,-2.6667,-2.6667,-2.6713,-2.6686,-2.6751,-2.6719,-2.6741,-2.6753,-2.6756,-2.676,-2.6728,-2.678,-2.6871,-2.6881,-2.6766,-2.6765,-2.6763,0,-2.627,-2.6344,-2.6349,-2.6417,-2.6452,-2.6446,-2.6484,-2.6509,-2.6522,-2.6556,-2.657,-2.6609,-2.6591,-2.6605,-2.6635,-2.6652,-2.6694,-2.6647,-2.6698,-2.67,-2.6689,-2.6774,-2.6783,-2.685,-2.6748,-2.675,-2.6751,0,-2.6204,-2.6245,-2.6256,-2.6274,-2.6307,-2.6337,-2.638,-2.6419,-2.644,-2.647,-2.6507,-2.6562,-2.655,-2.6573,-2.6577,-2.6608,-2.6666,-2.6592,-2.6592,-2.6604,-2.6741,-2.675,-2.6761,-2.6662,-2.6664,-2.6666,-2.6738,0,-2.6127,-2.6165,-2.6196,-2.6234,-2.6259,-2.6301,-2.6313,-2.6338,-2.6338,-2.6349,-2.6404,-2.6429,-2.647,-2.6486,-2.6487,-2.6553,-2.6544,-2.6531,-2.6504,-2.6559,-2.6584,-2.6593,-2.6467,-2.6466,-2.6465,-2.6465,0,0,-2.6041,-2.6095,-2.6098,-2.6139,-2.616,-2.6152,-2.6196,-2.6216,-2.6257,-2.6272,-2.6257,-2.6337,-2.6358,-2.6423,-2.6442,-2.6458,-2.6472,-2.6451,-2.6533,-2.654,-2.6547,-2.6573,-2.6583,-2.6464,-2.6464,-2.6463,-2.6463,0,-2.6014,-2.6032,-2.6075,-2.6095,-2.6125,-2.6134,-2.6145,-2.6173,-2.6182,-2.6235,-2.6228,-2.6263,-2.6326,-2.6349,-2.6369,-2.6444,-2.6437,-2.6456,-2.6491,-2.6526,-2.6535,-2.6542,-2.6569,-2.6578,-2.6462,-2.6462,-2.6462,0,-2.5951,-2.597,-2.5992,-2.6038,-2.6057,-2.6094,-2.6068,-2.6108,-2.6136,-2.6125,-2.6178,-2.6193,-2.6225,-2.6285,-2.6312,-2.6299,-2.6405,-2.6374,-2.6378,-2.6381,-2.6416,-2.6426,-2.6435,-2.6317,-2.6317,-2.6316,0,0,-2.5926,-2.596,-2.5984,-2.6033,-2.6045,-2.6059,-2.608,-2.6081,-2.6108,-2.6119,-2.6138,-2.6165,-2.6202,-2.6227,-2.6262,-2.6326,-2.6334,-2.6355,-2.6362,-2.6368,-2.6373,-2.641,-2.642,-2.6314,-2.6314,-2.6314,0,0,-2.5914,-2.5942,-2.5937,-2.5994,-2.602,-2.6046,-2.6077,-2.6071,-2.6103,-2.6099,-2.6105,-2.6113,-2.6169,-2.6184,-2.6154,-2.6253,-2.6226,-2.6233,-2.624,-2.6249,-2.6255,-2.625,-2.6131,0,0,0,0,0,-2.5891,-2.5939,-2.5933,-2.5944,-2.6002,-2.6049,-2.6057,-2.6061,-2.6042,-2.6066,-2.6081,-2.6072,-2.617,-2.6143,-2.6155,-2.6188,-2.6287,-2.6291,-2.6296,-2.632,-2.6329,-2.6337,0,0,0,0,0,0,-2.5895,-2.5909,-2.5932,-2.596,-2.5974,-2.6048,-2.6016,-2.6018,-2.6039,-2.6037,-2.6069,-2.6073,-2.6079,-2.6137,-2.6148,-2.6179,-2.6128,-2.6289,-2.6293,-2.6296,-2.6323,-2.6331,-2.6337,0,0,0,0,0,-2.5899,-2.591,-2.6001,-2.596,-2.5971,-2.5989,-2.6014,-2.6016,-2.6032,-2.6055,-2.6058,-2.6034,-2.6079,-2.6089,-2.6144,-2.6174,-2.612,-2.6124,-2.6291,-2.6294,-2.6297,-2.6327,0,0,0,0,0,0,-2.5902,-2.5913,-2.6004,-2.6008,-2.5941,-2.5985,-2.5991,-2.6014,-2.6049,-2.6053,-2.602,-2.6017,-2.608,-2.6088,-2.6095,-2.6172,-2.6114,-2.6118,-2.6121,-2.6294,-2.6296,-2.6299,0,0,0,0,0,0,-2.5907,-2.5916,-2.6006,-2.5982,-2.5983,-2.5981,-2.5987,-2.6034,-2.605,-2.6012,-2.6011,-2.6018,-2.607,-2.6087,-2.6093,-2.6167,-2.611,-2.6114,-2.6116,-2.6118,-2.6296,-2.6298,0,0,0,0,0,0,-2.5911,-2.5918,-2.5981,-2.5982,-2.5983,-2.6025,-2.6023,-2.6083,-2.6028,-2.6011,-2.6023,-2.6021,-2.607,-2.6076,-2.6091,-2.6163,-2.6166,-2.611,-2.6113,-2.6114,-2.6116,0,0,0,0,0,0,0,-2.5914,-2.586,-2.5982,-2.5982,-2.5983,-2.6042,-2.6043,-2.6044,-2.6028,-2.6026,-2.6024,-2.6022,-2.6088,-2.6092,-2.6096,-2.616,0,0,-2.6109,-2.6111,0,0,0,0,0,0,0,0,-2.5857,-2.586,-2.5982,-2.5983,-2.5983,-2.6042,-2.6043,-2.6044,-2.6027,-2.6026,-2.6024,-2.6023,-2.6089,-2.6092,-2.6096,0,0,0,0,0,0,0,0,0,0,0,0,0,0,0,-2.5982,-2.5982,0,-2.6042,-2.6043,-2.6044,-2.6027,-2.6026,-2.6025,-2.6023,-2.609,-2.6093,-2.6095,0,0,0,0,0,0,0,0,0,0,0,0,0,0,0,0,0,0,0,0,0,0,0,0,0,0,0,0,0,0,0,0,0,0,0,0,0,0,0,0,0,0,0,0,0,0,0,0,0,0,0,0,0,0,0,0,0,0,0,0,0,0,0,0,0,0,0,0,0]}]]]